Vorticity
4 4 6 7 4 9 4 -13 14 5 -4 -3 4 3 9 8 9 19 16 11 4 10 5 3 9 4 7 6 7 8 8 9 12 13 9 6 4 3 2 11 11 15 11 5 5 10 8 7 5
5 4 5 5 7 10 1 19 7 1 -0 -1 5 12 7 5 15 11 10 14 8 6 7 7 6 4 6 13 11 11 7 10 11 11 14 10 8 27 -3 1 13 14 1 1 5 6 7 1 6
4 3 5 5 8 14 9 1 -2 3 -1 1 4 11 7 17 13 12 9 13 8 8 1 10 2 4 9 5 13 12 14 -2 6 18 10 7 9 4 -12 2 16 5 6 4 7 7 -5 7 7
6 5 6 5 12 5 2 22 -4 7 8 8 9 10 3 14 13 10 12 9 7 8 13 10 6 3 7 9 6 17 5 22 43 44 42 3 7 7 13 9 3 0 11 3 -0 -2 -7 11 11
5 5 5 6 13 5 -24 5 -7 -7 -8 -0 5 7 3 15 12 5 8 10 16 17 11 10 5 5 5 7 14 20 13 3 -14 21 2 -3 10 7 0 5 -2 10 3 -1 4 3 2 12 2
6 6 5 7 6 2 24 5 6 3 3 17 6 6 8 7 10 7 14 12 11 -0 5 9 8 9 10 14 13 14 18 19 22 33 -2 33 4 6 20 9 3 3 10 5 9 -1 11 10 -1
9 4 6 5 9 6 24 0 2 2 8 4 5 5 6 6 6 -4 13 14 14 6 7 5 7 9 16 12 2 21 8 14 15 7 -73 20 5 27 9 16 11 0 -7 12 9 1 10 8 10
8 5 6 8 10 22 -3 3 2 4 14 9 2 4 8 18 11 3 5 9 4 2 7 13 9 9 15 4 14 19 6 19 17 32 46 -12 4 -22 -3 32 3 11 22 2 -2 5 6 -3 6
6 7 9 12 11 5 -20 1 4 -0 10 6 6 3 9 9 6 9 1 7 7 9 11 9 10 11 14 12 19 15 10 14 27 57 49 -3 2 20 -11 26 -20 1 12 9 12 5 -0 -2 4
6 7 12 9 9 7 -10 -1 8 -4 8 8 5 6 3 1 9 11 6 8 8 11 10 10 12 11 7 0 18 20 7 16 45 -32 18 -0 19 -7 10 1 7 2 5 6 12 8 -3 16 1
4 7 9 9 9 3 -4 14 -3 -5 5 5 7 6 2 3 18 6 11 6 6 6 11 11 10 10 9 9 11 17 12 15 26 29 -3 -5 8 6 8 13 3 10 7 2 8 8 7 13 2
4 10 8 10 9 4 4 2 20 -0 5 8 8 7 6 4 13 10 14 3 5 5 9 8 9 7 14 4 16 24 21 15 28 4 -9 6 0 -1 13 7 2 3 11 11 10 6 6 17 -1
2 9 4 9 6 7 5 2 8 1 5 7 8 6 6 5 5 17 13 1 4 3 5 9 8 6 8 16 1 12 8 24 24 -7 11 -15 3 15 -11 8 9 1 5 27 9 7 11 7 1
9 7 8 6 6 -3 4 4 6 12 4 4 6 4 6 5 7 11 20 0 4 1 3 5 7 8 6 9 5 5 18 33 13 6 -4 14 18 1 -16 17 -1 13 -2 34 14 -2 29 9 2
10 4 8 8 12 15 10 4 3 6 2 3 5 4 5 5 5 4 18 12 0 1 4 6 9 8 5 8 8 23 12 19 13 36 3 13 -25 24 -2 1 5 -7 -8 14 19 20 6 15 2
8 6 6 23 11 9 10 7 5 1 4 2 9 4 9 7 7 5 23 14 8 8 2 5 5 8 8 6 10 19 9 8 28 29 28 9 12 2 -7 6 -11 -1 14 4 28 10 -6 10 3
8 7 8 10 9 11 3 8 4 9 9 5 13 3 9 5 7 5 13 17 9 9 3 4 1 8 6 5 11 18 11 11 13 26 41 -9 -3 -3 4 -7 2 -10 3 13 10 24 1 -2 4
14 7 9 8 5 17 8 12 10 -7 12 4 5 5 3 2 7 6 8 19 10 7 2 1 0 6 7 8 10 15 16 12 -1 12 28 20 6 11 16 8 15 2 1 11 5 37 -5 7 3
10 9 6 6 8 10 -1 9 17 -3 15 6 11 0 1 3 6 7 8 20 13 8 5 2 9 6 6 5 8 15 21 -0 10 15 1 12 21 18 22 16 21 13 15 1 -6 6 29 20 -0
8 9 9 7 9 19 19 13 9 13 9 7 4 4 6 4 6 9 7 18 14 10 11 13 5 6 8 9 7 16 18 9 19 -4 -11 11 13 10 13 20 10 5 3 3 -1 7 1 29 -13
16 13 -7 10 11 -5 0 9 9 -4 8 -5 10 11 7 8 5 11 5 13 18 10 9 7 4 9 6 8 8 9 25 14 -2 -1 12 3 4 5 4 15 27 22 20 30 31 23 26 8 36
7 11 13 38 9 -1 11 -10 2 7 5 6 4 4 8 5 5 8 7 8 21 10 9 7 6 6 5 7 9 8 7 8 14 27 16 9 -6 -4 4 3 15 11 1 -0 19 12 12 12 9
20 12 9 -3 21 6 -14 18 4 8 11 7 5 16 9 5 5 6 8 6 18 12 10 7 5 6 5 9 11 10 8 7 8 7 8 13 27 18 12 6 -6 10 11 4 3 10 5 3 5
12 15 20 -0 40 25 20 -7 -0 4 8 13 7 1 9 4 5 8 6 7 11 16 15 7 7 2 6 8 10 14 14 11 9 7 7 10 23 23 12 15 10 9 2 -5 13 6 7 8 -0
30 28 23 14 21 16 11 5 2 2 6 10 8 5 8 12 4 7 8 8 7 19 9 7 7 0 10 6 7 6 7 10 11 13 11 9 9 12 23 19 7 2 1 0 6 5 -0 3 1
15 9 -0 13 7 7 6 7 10 18 3 -3 13 4 4 2 7 5 9 7 6 15 10 7 7 3 8 5 6 6 7 4 4 9 9 15 14 8 4 7 31 41 25 8 17 2 3 -2 7
18 13 14 19 25 7 12 9 -2 5 9 17 1 3 10 3 2 7 9 12 5 10 8 12 6 4 5 5 3 6 4 7 9 9 6 5 4 9 14 10 10 5 5 25 50 15 -6 2 6
22 29 8 -0 -20 24 34 12 25 15 25 2 1 12 8 -4 5 4 -1 17 3 5 10 8 11 5 -1 6 3 4 4 4 7 4 5 8 10 6 8 11 8 8 3 6 4 7 18 30 21
60 1 24 6 30 -11 -6 31 22 -4 18 10 15 4 11 7 3 -1 4 8 14 7 7 6 11 9 5 4 2 3 2 4 7 2 2 0 5 9 8 5 3 5 8 -0 -2 7 12 8 10
39 61 -3 4 64 -3 12 7 3 9 3 15 11 11 7 8 2 3 -1 4 7 12 6 4 4 6 4 7 3 4 2 2 4 6 4 2 2 4 12 9 8 10 5 3 5 2 6 6 10
Height
5829 5828 5827 5828 5831 5830 5826 5823 5817 5817 5815 5817 5819 5821 5816 5811 5811 5813 5810 5808 5805 5805 5805 5804 5803 5802 5801 5800 5800 5800 5801 5802 5802 5803 5806 5806 5811 5815 5818 5821 5825 5829 5832 5835 5836 5839 5840 5842 5844
5824 5824 5823 5823 5826 5825 5822 5818 5816 5815 5814 5813 5813 5813 5810 5806 5806 5805 5804 5803 5799 5801 5801 5799 5798 5797 5795 5794 5793 5792 5792 5794 5794 5794 5795 5799 5804 5809 5813 5817 5821 5824 5827 5830 5834 5837 5838 5839 5841
5819 5819 5819 5820 5821 5821 5818 5813 5813 5811 5810 5811 5810 5809 5805 5803 5802 5798 5796 5797 5796 5794 5795 5793 5791 5792 5791 5789 5785 5785 5787 5789 5784 5784 5787 5791 5797 5804 5807 5812 5817 5820 5824 5827 5830 5833 5835 5837 5838
5814 5815 5815 5816 5817 5815 5815 5810 5810 5810 5808 5806 5804 5807 5801 5800 5799 5797 5793 5792 5790 5790 5787 5787 5786 5785 5785 5782 5780 5779 5780 5780 5784 5779 5780 5783 5792 5796 5802 5808 5813 5816 5820 5823 5827 5829 5832 5835 5836
5810 5808 5810 5810 5811 5810 5808 5806 5807 5806 5804 5801 5798 5798 5795 5796 5794 5791 5790 5787 5785 5785 5782 5780 5779 5778 5777 5776 5774 5773 5773 5773 5774 5778 5780 5773 5785 5790 5795 5801 5807 5812 5815 5819 5823 5826 5828 5832 5834
5805 5803 5804 5806 5806 5804 5801 5802 5803 5802 5802 5800 5797 5795 5791 5792 5790 5788 5785 5782 5779 5779 5778 5775 5772 5772 5770 5770 5769 5767 5768 5771 5770 5773 5777 5772 5778 5786 5790 5796 5801 5805 5810 5814 5818 5822 5824 5826 5831
5800 5795 5799 5799 5799 5800 5798 5796 5796 5798 5798 5797 5793 5791 5788 5788 5785 5784 5782 5778 5776 5773 5772 5770 5767 5765 5764 5764 5762 5760 5760 5761 5764 5768 5766 5772 5772 5781 5786 5789 5794 5801 5806 5808 5815 5818 5820 5824 5826
5793 5789 5792 5796 5796 5797 5795 5793 5792 5790 5792 5791 5789 5788 5784 5783 5781 5781 5779 5776 5774 5770 5765 5764 5762 5759 5758 5757 5755 5755 5756 5756 5754 5756 5764 5767 5769 5779 5782 5784 5791 5796 5802 5806 5811 5814 5817 5819 5822
5784 5783 5789 5791 5789 5788 5785 5789 5786 5784 5787 5786 5783 5782 5784 5781 5777 5776 5775 5771 5769 5766 5762 5759 5757 5755 5754 5753 5750 5750 5750 5749 5747 5749 5757 5761 5768 5775 5780 5782 5786 5793 5798 5802 5806 5810 5813 5815 5819
5777 5775 5786 5784 5784 5780 5778 5783 5778 5779 5781 5781 5779 5776 5777 5776 5773 5771 5772 5768 5766 5762 5758 5756 5753 5751 5750 5750 5746 5745 5746 5746 5744 5749 5754 5760 5764 5771 5775 5780 5785 5790 5793 5797 5801 5804 5808 5811 5815
5770 5768 5776 5778 5778 5774 5774 5775 5777 5774 5776 5778 5775 5772 5773 5771 5770 5767 5767 5765 5762 5759 5756 5753 5750 5748 5746 5744 5741 5741 5742 5741 5745 5749 5750 5758 5763 5769 5774 5777 5782 5787 5789 5793 5797 5800 5804 5806 5811
5762 5765 5769 5771 5770 5768 5771 5771 5773 5771 5773 5773 5772 5769 5769 5768 5767 5764 5763 5762 5758 5757 5754 5751 5749 5745 5744 5743 5739 5738 5740 5741 5742 5745 5749 5756 5760 5764 5771 5774 5780 5784 5785 5789 5792 5795 5800 5803 5807
5754 5760 5761 5762 5762 5762 5765 5766 5766 5768 5769 5768 5768 5767 5767 5763 5761 5761 5759 5760 5756 5753 5752 5750 5747 5744 5742 5742 5739 5738 5737 5740 5742 5743 5749 5754 5759 5761 5767 5770 5776 5780 5782 5784 5787 5791 5795 5799 5802
5749 5749 5752 5752 5754 5758 5758 5760 5759 5767 5763 5763 5763 5763 5764 5762 5758 5756 5755 5756 5753 5751 5750 5748 5746 5743 5739 5738 5737 5736 5736 5736 5739 5743 5748 5754 5756 5758 5765 5767 5774 5775 5777 5779 5782 5787 5791 5795 5797
5738 5740 5742 5744 5753 5753 5752 5751 5757 5761 5756 5758 5759 5758 5760 5757 5756 5753 5751 5752 5750 5747 5746 5745 5744 5741 5738 5736 5737 5735 5734 5733 5735 5738 5742 5748 5752 5754 5761 5765 5769 5770 5772 5774 5777 5782 5787 5792 5792
5729 5730 5731 5743 5747 5747 5747 5744 5754 5752 5750 5752 5754 5753 5753 5752 5752 5749 5747 5747 5746 5744 5743 5741 5740 5740 5737 5733 5729 5728 5730 5731 5729 5731 5736 5742 5747 5752 5756 5760 5763 5764 5767 5769 5773 5778 5782 5786 5788
5717 5721 5729 5736 5737 5738 5737 5738 5747 5742 5743 5746 5748 5747 5748 5749 5747 5745 5743 5743 5743 5741 5740 5738 5736 5735 5734 5732 5730 5727 5726 5726 5727 5726 5732 5738 5742 5747 5752 5755 5758 5761 5762 5765 5769 5773 5777 5780 5784
5711 5714 5720 5724 5732 5730 5730 5730 5737 5738 5736 5739 5741 5741 5744 5745 5742 5741 5740 5738 5740 5737 5737 5736 5734 5732 5730 5728 5727 5726 5726 5727 5728 5728 5730 5736 5741 5743 5748 5749 5751 5753 5755 5760 5763 5768 5772 5774 5777
5701 5703 5706 5714 5720 5718 5718 5721 5726 5729 5729 5730 5735 5735 5737 5740 5740 5737 5736 5734 5736 5734 5734 5733 5732 5730 5729 5726 5725 5723 5722 5723 5725 5727 5728 5732 5735 5738 5741 5743 5745 5747 5750 5756 5758 5762 5765 5767 5771
5688 5691 5698 5702 5711 5708 5710 5715 5716 5719 5722 5725 5728 5729 5730 5733 5735 5734 5732 5730 5731 5731 5731 5731 5729 5728 5726 5724 5722 5721 5720 5721 5722 5725 5728 5729 5733 5734 5735 5737 5741 5743 5745 5749 5752 5756 5758 5760 5764
5679 5684 5691 5694 5701 5692 5696 5697 5703 5710 5715 5720 5721 5721 5723 5724 5727 5729 5727 5726 5727 5727 5728 5728 5726 5726 5724 5722 5722 5721 5720 5720 5720 5722 5725 5726 5730 5731 5733 5735 5737 5740 5742 5744 5744 5748 5751 5754 5759
5670 5675 5677 5675 5680 5686 5688 5688 5694 5702 5707 5712 5714 5718 5719 5718 5719 5724 5723 5723 5722 5723 5724 5725 5724 5723 5723 5722 5720 5720 5720 5720 5720 5722 5725 5727 5729 5731 5733 5735 5735 5736 5739 5742 5742 5744 5746 5749 5753
5656 5659 5661 5667 5674 5678 5683 5682 5689 5696 5699 5704 5708 5713 5715 5714 5714 5719 5719 5720 5719 5719 5720 5721 5721 5720 5720 5720 5719 5719 5720 5720 5721 5721 5722 5724 5724 5724 5728 5729 5733 5734 5736 5738 5739 5741 5743 5745 5747
5641 5648 5652 5659 5663 5665 5679 5676 5679 5690 5695 5698 5701 5705 5709 5712 5710 5716 5715 5716 5716 5716 5716 5717 5717 5718 5718 5718 5717 5718 5719 5719 5719 5720 5720 5719 5718 5719 5723 5726 5727 5729 5732 5733 5735 5736 5737 5739 5741
5633 5637 5643 5650 5654 5658 5666 5669 5671 5686 5690 5693 5693 5696 5701 5705 5705 5709 5711 5711 5712 5713 5713 5714 5714 5715 5715 5715 5716 5715 5716 5716 5716 5716 5716 5717 5717 5718 5719 5720 5720 5723 5725 5726 5728 5730 5732 5733 5736
5625 5630 5635 5642 5647 5651 5661 5659 5671 5681 5684 5685 5688 5692 5694 5697 5699 5701 5705 5707 5708 5709 5710 5709 5711 5712 5712 5712 5713 5714 5713 5713 5713 5714 5714 5715 5715 5715 5717 5717 5716 5716 5718 5719 5721 5722 5726 5726 5727
5621 5623 5633 5635 5639 5645 5652 5658 5670 5672 5677 5679 5682 5686 5689 5691 5693 5695 5698 5702 5702 5704 5706 5706 5707 5708 5709 5709 5710 5710 5711 5711 5710 5711 5712 5713 5714 5714 5715 5714 5714 5713 5712 5712 5713 5717 5719 5720 5721
5616 5623 5627 5628 5636 5639 5645 5653 5663 5666 5671 5673 5676 5679 5682 5683 5686 5687 5691 5695 5697 5700 5701 5702 5703 5704 5705 5706 5706 5707 5707 5708 5708 5708 5708 5709 5709 5710 5711 5712 5711 5710 5710 5710 5710 5712 5714 5714 5716
5613 5617 5621 5625 5629 5634 5641 5647 5648 5653 5662 5664 5666 5669 5673 5674 5677 5680 5684 5689 5691 5694 5695 5695 5698 5699 5700 5701 5702 5703 5704 5705 5705 5706 5706 5706 5706 5706 5706 5706 5706 5707 5707 5708 5709 5710 5711 5711 5711
5608 5612 5616 5620 5625 5628 5635 5641 5641 5645 5647 5654 5661 5663 5666 5667 5670 5672 5676 5679 5683 5686 5687 5688 5690 5693 5694 5695 5696 5698 5699 5701 5702 5702 5702 5703 5702 5702 5702 5702 5702 5702 5702 5703 5704 5705 5705 5704 5703